Tuscaloosa, AL

5:52 AM CDT on October 15, 2019 (GMT -0500)
Tuscaloosa Municipal

Weather History for KTCL - May, 2019

Change the Weather History Date:

Monday, May 20, 2019

  Actual Average Record
Temperature  
Mean Temperature 80 °F 73 °F  
Max Temperature 92 °F 84 °F 96 °F (1962)
Min Temperature 67 °F 61 °F 43 °F (2002)
Cooling Degree Days 14    
Growing Degree Days 29 (Base 50)    
Moisture  
Dew Point 68 °F    
Average Humidity 69    
Maximum Humidity 90    
Minimum Humidity 47    
Precipitation  
Precipitation 0.00 in 0.14 in 3.50 in (1990)
Month to date precipitation 3.76 2.56  
Year to date precipitation 25.12 21.98  
Sea Level Pressure  
Sea Level Pressure 30.00 in    
Wind  
Wind Speed 3 mph (NE)    
Max Wind Speed 9 mph    
Max Gust Speed 13 mph    
Visibility 10 miles    
Events      
T = Trace of Precipitation, MM = Missing Value Source: NWS Daily Summary

Daily Weather History Graph

Daily Weather History Graph

Search for Another Location

Airport or City:

Astronomy

May. 20, 2019 Rise Set
Actual Time 5:47 AM CDT 7:46 PM CDT
Civil Twilight 5:19 AM CDT 8:14 PM CDT
Nautical Twilight 4:46 AM CDT 8:48 PM CDT
Astronomical Twilight 4:10 AM CDT 9:24 PM CDT
Moon 9:45 PM CDT (5/20) 7:16 AM CDT (5/20)
Length of Visible Light 14h 54m
Length of Day
13h 59m
Waning Gibbous, 96% of the Moon is Illuminated
May 20
Waning Gibbous
May 26
Last Quarter
Jun 3
New
Jun 10
First Quarter
Jun 17
Full

Hourly Weather History & Observations

Time (CDT) Temp. Heat Index Dew Point Humidity Pressure Visibility Wind Dir Wind Speed Gust Speed Precip Events Conditions
12:53 AM 69.1 °F - 64.9 °F 87% 30.01 in 10.0 mi Calm Calm - N/A   Clear
1:53 AM 68.0 °F - 64.9 °F 90% 30.00 in 6.0 mi Calm Calm - N/A   Clear
2:53 AM 68.0 °F - 64.0 °F 87% 29.99 in 10.0 mi Calm Calm - N/A   Clear
3:53 AM 68.0 °F - 64.9 °F 90% 30.00 in 10.0 mi Calm Calm - N/A   Clear
4:53 AM 69.1 °F - 64.9 °F 87% 30.02 in 10.0 mi Calm Calm - N/A   Mostly Cloudy
5:53 AM 68.0 °F - 64.0 °F 87% 30.03 in 9.0 mi Calm Calm - N/A   Mostly Cloudy
6:53 AM 70.0 °F - 66.0 °F 87% 30.05 in 10.0 mi Calm Calm - N/A   Clear
7:53 AM 73.9 °F - 66.9 °F 79% 30.06 in 10.0 mi Calm Calm - N/A   Clear
8:53 AM 75.9 °F - 66.9 °F 74% 30.07 in 10.0 mi WNW 3.5 mph - N/A   Overcast
9:53 AM 82.0 °F 84.5 °F 66.9 °F 60% 30.06 in 10.0 mi Variable 4.6 mph - N/A   Mostly Cloudy
10:53 AM 84.0 °F 87.8 °F 69.1 °F 61% 30.06 in 10.0 mi Variable 3.5 mph - N/A   Overcast
11:08 AM 84.0 °F 87.0 °F 68.0 °F 58% 30.07 in 10.0 mi Variable 6.9 mph - N/A   Overcast
11:43 AM 84.9 °F 88.8 °F 69.1 °F 59% 30.06 in 10.0 mi NNE 8.1 mph - N/A   Mostly Cloudy
11:50 AM 86.0 °F 90.4 °F 69.8 °F 58% 30.06 in 10.0 mi North 8.1 mph - N/A   Mostly Cloudy
11:53 AM 86.0 °F 90.1 °F 69.1 °F 57% 30.05 in 10.0 mi NNE 8.1 mph - N/A   Scattered Clouds
12:53 PM 88.0 °F 92.1 °F 69.1 °F 53% 30.04 in 10.0 mi Variable 3.5 mph - N/A   Scattered Clouds
1:53 PM 89.1 °F 93.7 °F 69.1 °F 52% 30.01 in 10.0 mi Variable 5.8 mph - N/A   Partly Cloudy
2:53 PM 90.0 °F 93.6 °F 68.0 °F 48% 29.99 in 10.0 mi WNW 3.5 mph - N/A   Clear
3:53 PM 89.1 °F 92.1 °F 66.9 °F 48% 29.98 in 10.0 mi Calm Calm - N/A   Partly Cloudy
4:53 PM 86.0 °F 90.7 °F 70.0 °F 59% 29.96 in 10.0 mi Calm Calm - N/A   Clear
5:53 PM 89.1 °F 92.9 °F 68.0 °F 50% 29.96 in 10.0 mi NE 6.9 mph - N/A   Clear
6:53 PM 87.1 °F 91.3 °F 69.1 °F 55% 29.94 in 10.0 mi ENE 4.6 mph - N/A   Scattered Clouds
7:53 PM 80.1 °F 83.2 °F 70.0 °F 71% 29.93 in 10.0 mi East 4.6 mph - N/A   Clear
8:53 PM 75.9 °F - 69.1 °F 79% 29.93 in 10.0 mi ENE 4.6 mph - N/A   Clear
9:53 PM 75.9 °F - 68.0 °F 76% 29.93 in 10.0 mi ENE 5.8 mph - N/A   Clear
10:53 PM 77.0 °F - 68.0 °F 74% 29.93 in 10.0 mi ENE 4.6 mph - N/A   Clear
11:53 PM 75.0 °F - 68.0 °F 79% 29.92 in 10.0 mi Calm Calm - N/A   Clear